カタログに戻る

TELKOM 2

運用中通信GEO
NORAD 28902·PAYLOAD·🇮🇩 Indonesia

打ち上げ Nov 16, 2005 から Guiana Space Centre

Loading…

TLE

最新Source: Space-Track

元期: Sep 14, 2026, 13:21 UTC

1 28902U 05046A   26257.55651081 -.00000022  00000-0  00000-0 0  9994
2 28902   5.0037  74.7760 0007305 190.0118 195.3181  0.99144751 76128

AllMySatでTELKOM 2をリアルタイム追跡

Download on the App Store